[[{"header":{"parameterUnit":"m.s-1","parameterCategory":1,"la1":30.2991,"la2":30.254,"lo1":-89.0895,"lo2":-89.0444,"dy":0.0017,"dx":0.0017,"nx":28,"ny":28,"refTime":"2023-09-18T21:00:00:Z","depth":0,"parameterNumber":2,"parameterNumberName":"U-component_of_WINDS"},"data":[0,0,0,0,0,0,0,0,0,0,0,0,0,0,0,0,0,0,0,0,0,0,0,0,0,0,0,0,0,0,0,0,0,0,0,0,0,0,0,0,0,0,0,0,0,0,0,0,0,0,0,0,0,0,0,0,0,0,-2.317,-2.3172,0,-2.3358,-2.336,-2.3362,-2.3431,-2.343,-2.343,-2.3429,-2.3623,-2.3628,-2.3634,0,0,0,0,0,0,0,0,0,0,0,0,0,-2.2873,-2.2878,-2.317,-2.3173,-2.3175,-2.3358,-2.336,-2.3363,-2.3431,-2.343,-2.3429,-2.3429,-2.3621,-2.3627,-2.3634,0,0,0,0,0,0,0,0,0,0,0,0,0,-2.3026,-2.288,-2.317,-2.3231,-2.3238,-2.3357,-2.3361,-2.3364,-2.3431,-2.343,-2.3429,-2.3428,-2.3618,-2.3627,-2.3635,-2.3708,0,0,-2.3662,-2.3665,0,0,0,0,0,0,0,0,-2.3017,-2.3037,-2.322,-2.3227,-2.3235,-2.337,-2.3327,-2.3479,-2.3431,-2.3358,-2.3429,-2.3428,-2.3539,-2.3554,-2.3592,-2.3717,-2.3725,-2.3662,-2.3668,-2.3671,-2.3674,0,0,0,0,0,0,0,-2.3006,-2.3029,-2.3245,-2.3222,-2.3232,-2.325,-2.327,-2.3356,-2.3452,-2.3364,-2.337,-2.3391,-2.3544,-2.3583,-2.3597,-2.3728,-2.3662,-2.367,-2.3675,-2.3679,-2.3925,-2.3926,0,0,0,0,0,0,-2.2985,-2.302,-2.3239,-2.325,-2.3122,-2.3256,-2.3279,-2.3328,-2.3451,-2.3469,-2.3391,-2.3393,-2.3569,-2.3587,-2.3604,-2.3698,-2.3671,-2.3679,-2.3684,-2.3924,-2.3925,-2.3927,0,0,0,0,0,0,-2.2979,-2.3004,-2.3231,-2.3137,-2.3167,-2.3262,-2.3316,-2.3332,-2.3372,-2.3472,-2.3489,-2.3414,-2.3569,-2.3592,-2.3682,-2.3706,-2.3683,-2.3691,-2.3922,-2.3924,-2.3926,-2.3885,0,0,0,0,0,0,-2.297,-2.3001,-2.3029,-2.3137,-2.3172,-2.3305,-2.3318,-2.3336,-2.3386,-2.3391,-2.3498,-2.3515,-2.357,-2.3669,-2.3691,-2.3717,-2.3698,-2.392,-2.3923,-2.3925,-2.3885,-2.3886,-2.3887,0,0,0,0,0,-2.2959,-2.301,-2.303,-2.3056,-2.3208,-2.3306,-2.3326,-2.3388,-2.3388,-2.3417,-2.3482,-2.3511,-2.37,-2.3677,-2.3703,-2.3732,-2.3919,-2.3922,-2.3925,-2.3885,-2.3886,-2.3886,0,0,0,0,0,0,-2.2902,-2.3025,-2.3048,-2.3135,-2.321,-2.3317,-2.3355,-2.3387,-2.3463,-2.3464,-2.3539,-2.3562,-2.3647,-2.3699,-2.3672,-2.381,-2.3812,-2.382,-2.3772,-2.3774,-2.3775,-2.3759,-2.3705,0,0,0,0,0,-2.2899,-2.2968,-2.3072,-2.3139,-2.3175,-2.3259,-2.3304,-2.3346,-2.3426,-2.3457,-2.3529,-2.3606,-2.3683,-2.3732,-2.3808,-2.3894,-2.3919,-2.3927,-2.3928,-2.3928,-2.3933,-2.3985,-2.399,-2.3937,-2.3937,-2.3937,0,0,-2.2895,-2.2971,-2.3009,-2.313,-2.3192,-2.3262,-2.3285,-2.3357,-2.3411,-2.3469,-2.3558,-2.3613,-2.3705,-2.3793,-2.3836,-2.3839,-2.3954,-2.3932,-2.3931,-2.3937,-2.3988,-2.3993,-2.3997,-2.3939,-2.3939,-2.3938,0,0,-2.2922,-2.2986,-2.3049,-2.3112,-2.3206,-2.3262,-2.3278,-2.3381,-2.342,-2.3511,-2.3557,-2.3622,-2.3753,-2.3816,-2.3866,-2.3921,-2.3951,-2.3944,-2.3947,-2.3996,-2.4,-2.4004,-2.4024,-2.403,-2.395,-2.395,-2.395,0,-2.2904,-2.3011,-2.3078,-2.3149,-2.3201,-2.3258,-2.3323,-2.3381,-2.3495,-2.3531,-2.3533,-2.37,-2.3766,-2.387,-2.3884,-2.3923,-2.3943,-2.3931,-2.3994,-2.3999,-2.4003,-2.4023,-2.403,-2.3948,-2.3948,-2.3949,-2.3949,0,-2.2985,-2.3058,-2.3098,-2.3208,-2.3265,-2.3332,-2.3411,-2.3461,-2.3499,-2.3555,-2.3648,-2.373,-2.3824,-2.3853,-2.389,-2.3964,-2.3963,-2.3979,-2.3982,-2.4006,-2.4025,-2.4033,-2.3946,-2.3947,-2.3947,-2.3947,0,0,-2.2978,-2.3126,-2.3139,-2.319,-2.33,-2.3359,-2.3431,-2.3523,-2.3564,-2.3643,-2.3705,-2.3816,-2.3832,-2.3888,-2.3935,-2.3978,-2.4017,-2.3989,-2.3992,-2.399,-2.4104,-2.409,-2.4098,-2.4039,-2.4041,-2.4042,-2.4096,0,-2.3019,-2.3148,-2.3212,-2.3313,-2.3383,-2.344,-2.3503,-2.3578,-2.3633,-2.3701,-2.3763,-2.384,-2.3856,-2.389,-2.3935,-2.4002,-2.404,-2.4,-2.4098,-2.4101,-2.4071,-2.4108,-2.4093,-2.414,-2.4104,-2.4106,-2.4107,0,-2.3084,-2.3162,-2.327,-2.3373,-2.3405,-2.346,-2.3551,-2.3615,-2.3703,-2.374,-2.3804,-2.385,-2.3929,-2.3928,-2.4039,-2.401,-2.4055,-2.4094,-2.4097,-2.4107,-2.4103,-2.4118,-2.4157,-2.4163,-2.412,-2.4119,-2.4118,0,-2.3067,-2.32,-2.3282,-2.3324,-2.3447,-2.3485,-2.3538,-2.3624,-2.3676,-2.3757,-2.3792,-2.388,-2.3928,-2.3997,-2.4066,-2.4059,-2.4171,-2.4175,-2.4205,-2.4203,-2.4223,-2.4221,-2.4268,-2.4255,-2.4254,-2.4254,-2.4254,0,-2.3106,-2.317,-2.3277,-2.3327,-2.3401,-2.3475,-2.3547,-2.3605,-2.3682,-2.3746,-2.3801,-2.386,-2.3948,-2.4019,-2.4074,-2.4158,-2.418,-2.4213,-2.4226,-2.4207,-2.4203,-2.4236,-2.4234,-2.4256,-2.4256,-2.4255,-2.4255,0,-2.3099,-2.3173,-2.3266,-2.3376,-2.3405,-2.3455,-2.3549,-2.3602,-2.3661,-2.3741,-2.3764,-2.3858,-2.3944,-2.402,-2.4135,-2.4172,-2.4258,-2.4275,-2.4227,-2.4234,-2.4259,-2.4255,-2.4329,-2.4342,-2.432,-2.432,-2.432,0,-2.3118,-2.3168,-2.3284,-2.333,-2.3382,-2.3456,-2.351,-2.3586,-2.364,-2.3745,-2.3785,-2.3875,-2.3951,-2.4087,-2.4166,-2.4254,-2.4274,-2.4294,-2.4287,-2.4267,-2.4273,-2.4269,-2.4275,-2.4292,-2.4292,-2.4292,-2.4292,0,-2.3143,-2.3178,-2.3253,-2.3341,-2.3404,-2.3477,-2.3552,-2.3588,-2.3678,-2.3736,-2.3825,-2.3884,-2.4002,-2.4091,-2.4189,-2.4246,-2.4284,-2.4294,-2.4305,-2.4285,-2.4255,-2.4271,-2.4226,-2.4291,-2.4291,-2.4291,-2.4291,-2.4291,-2.315,-2.3198,-2.3286,-2.3369,-2.3433,-2.3503,-2.3557,-2.3624,-2.3699,-2.38,-2.3841,-2.3931,-2.4021,-2.4156,-2.4213,-2.4286,-2.4293,-2.4309,-2.4313,-2.4316,-2.4312,-2.4245,-2.4304,-2.4304,-2.4305,-2.4305,-2.4305,0,-2.3178,-2.3238,-2.3313,-2.3416,-2.3481,-2.3513,-2.3598,-2.3651,-2.3729,-2.3809,-2.3883,-2.3986,-2.4074,-2.4161,-2.4254,-2.4295,-2.4316,-2.4317,-2.4314,-2.4327,-2.4301,-2.4281,-2.4299,-2.4299,-2.4299,-2.4299,-2.4299,-2.4299,-2.3199,-2.3282,-2.3328,-2.3445,-2.3506,-2.3594,-2.364,-2.3705,-2.3769,-2.3881,-2.3954,-2.401,-2.4093,-2.4193,-2.4276,-2.43,-2.4331,-2.4327,-2.4355,-2.4329,-2.4328,-2.4328,-2.431,-2.4334,-2.4334,-2.4375,-2.4376,-2.4376]},{"header":{"parameterUnit":"m.s-1","parameterCategory":1,"la1":30.2991,"la2":30.254,"lo1":-89.0895,"lo2":-89.0444,"dy":0.0017,"dx":0.0017,"nx":28,"ny":28,"refTime":"2023-09-18T21:00:00:Z","depth":0,"parameterNumber":3,"parameterNumberName":"V-component_of_WINDS"},"data":[0,0,0,0,0,0,0,0,0,0,0,0,0,0,0,0,0,0,0,0,0,0,0,0,0,0,0,0,0,0,0,0,0,0,0,0,0,0,0,0,0,0,0,0,0,0,0,0,0,0,0,0,0,0,0,0,0,0,-0.4916,-0.4917,0,-0.5058,-0.506,-0.5061,-0.5182,-0.5184,-0.5185,-0.5186,-0.5328,-0.533,-0.5333,0,0,0,0,0,0,0,0,0,0,0,0,0,-0.4745,-0.4747,-0.4916,-0.4917,-0.4919,-0.5058,-0.506,-0.5062,-0.5182,-0.5184,-0.5185,-0.5187,-0.5327,-0.533,-0.5333,0,0,0,0,0,0,0,0,0,0,0,0,0,-0.4846,-0.4748,-0.4915,-0.4996,-0.5005,-0.5058,-0.506,-0.5062,-0.5182,-0.5184,-0.5186,-0.5187,-0.5326,-0.5329,-0.5333,-0.5316,0,0,-0.5345,-0.5346,0,0,0,0,0,0,0,0,-0.484,-0.4852,-0.4982,-0.4991,-0.5,-0.5105,-0.5052,-0.5147,-0.5181,-0.5114,-0.5186,-0.5188,-0.5251,-0.5262,-0.5284,-0.5323,-0.5329,-0.5345,-0.5347,-0.5349,-0.535,0,0,0,0,0,0,0,-0.4833,-0.4847,-0.4972,-0.4984,-0.4995,-0.5024,-0.5041,-0.507,-0.517,-0.512,-0.5129,-0.5145,-0.5257,-0.528,-0.5288,-0.5331,-0.5345,-0.5348,-0.5351,-0.5352,-0.5364,-0.5362,0,0,0,0,0,0,-0.4814,-0.484,-0.4968,-0.4976,-0.4924,-0.5025,-0.5044,-0.5069,-0.517,-0.5187,-0.5143,-0.515,-0.5272,-0.5283,-0.5293,-0.5281,-0.5349,-0.5353,-0.5355,-0.5366,-0.5364,-0.5362,0,0,0,0,0,0,-0.481,-0.4824,-0.4962,-0.4911,-0.4931,-0.5026,-0.5053,-0.5071,-0.5094,-0.5187,-0.5205,-0.5148,-0.5274,-0.5288,-0.531,-0.5287,-0.5354,-0.5358,-0.5368,-0.5365,-0.5363,-0.5254,0,0,0,0,0,0,-0.4804,-0.4822,-0.4817,-0.491,-0.4933,-0.4977,-0.5052,-0.5072,-0.5101,-0.5111,-0.5197,-0.5213,-0.5277,-0.5304,-0.5314,-0.5294,-0.5361,-0.5371,-0.5367,-0.5364,-0.526,-0.5248,-0.5238,0,0,0,0,0,-0.4798,-0.478,-0.4816,-0.4831,-0.4929,-0.4975,-0.4988,-0.5064,-0.5098,-0.5094,-0.5154,-0.521,-0.5288,-0.5305,-0.5317,-0.5298,-0.5373,-0.5368,-0.5364,-0.5266,-0.5251,-0.5238,0,0,0,0,0,0,-0.4681,-0.4794,-0.4835,-0.4847,-0.4901,-0.4996,-0.4992,-0.5045,-0.5089,-0.5097,-0.5187,-0.5206,-0.5218,-0.526,-0.5277,-0.5287,-0.5338,-0.5336,-0.5259,-0.5245,-0.5234,-0.5223,-0.5364,0,0,0,0,0,-0.4657,-0.4686,-0.4783,-0.4783,-0.4809,-0.4895,-0.4918,-0.4972,-0.5031,-0.5054,-0.5115,-0.5169,-0.5206,-0.5228,-0.5267,-0.5267,-0.5288,-0.526,-0.5249,-0.5239,-0.5236,-0.5239,-0.5228,-0.5347,-0.5347,-0.5347,0,0,-0.4606,-0.4672,-0.4684,-0.4762,-0.481,-0.4837,-0.4914,-0.4939,-0.496,-0.5057,-0.5083,-0.5129,-0.5195,-0.5206,-0.5214,-0.5242,-0.5207,-0.5233,-0.5225,-0.5227,-0.5233,-0.5222,-0.5212,-0.5344,-0.5345,-0.5345,0,0,-0.4529,-0.4581,-0.4589,-0.4635,-0.4708,-0.4766,-0.4767,-0.4855,-0.489,-0.4917,-0.499,-0.5016,-0.5077,-0.5122,-0.5152,-0.5092,-0.5145,-0.5102,-0.5042,-0.5044,-0.5035,-0.5027,-0.5005,-0.4997,-0.5099,-0.5098,-0.5098,0,-0.4457,-0.4503,-0.4585,-0.4607,-0.4638,-0.4729,-0.4736,-0.4777,-0.4858,-0.4877,-0.4907,-0.4987,-0.5038,-0.5061,-0.5046,-0.5068,-0.5072,-0.5092,-0.503,-0.5023,-0.5017,-0.4997,-0.4989,-0.5093,-0.5093,-0.5094,-0.5094,0,-0.4411,-0.4441,-0.4438,-0.4515,-0.4546,-0.456,-0.4644,-0.4666,-0.4716,-0.4771,-0.4797,-0.4861,-0.4915,-0.4924,-0.4973,-0.4954,-0.4969,-0.5013,-0.5066,-0.4998,-0.4981,-0.4974,-0.5084,-0.5086,-0.5088,-0.5089,0,0,-0.4263,-0.4386,-0.4384,-0.442,-0.4507,-0.4531,-0.4549,-0.4604,-0.462,-0.4672,-0.4689,-0.474,-0.4782,-0.4816,-0.4871,-0.4873,-0.4821,-0.4917,-0.492,-0.4897,-0.4804,-0.477,-0.476,-0.4857,-0.4856,-0.4855,-0.4798,0,-0.4199,-0.4239,-0.4314,-0.4328,-0.4357,-0.4444,-0.446,-0.4514,-0.4565,-0.4596,-0.4653,-0.4687,-0.474,-0.4761,-0.4767,-0.4826,-0.4803,-0.4831,-0.4873,-0.4873,-0.4854,-0.4751,-0.4715,-0.4658,-0.4792,-0.4791,-0.479,0,-0.4131,-0.418,-0.4197,-0.4283,-0.4298,-0.4311,-0.4367,-0.4396,-0.4459,-0.4496,-0.4535,-0.4595,-0.4618,-0.4667,-0.4699,-0.4716,-0.4737,-0.4769,-0.4769,-0.4775,-0.4827,-0.4754,-0.4642,-0.4633,-0.4781,-0.4781,-0.4782,0,-0.4021,-0.4091,-0.4112,-0.414,-0.424,-0.4247,-0.4289,-0.4354,-0.4382,-0.443,-0.4449,-0.4499,-0.4526,-0.4562,-0.4634,-0.4663,-0.4658,-0.4713,-0.4689,-0.4687,-0.4684,-0.4683,-0.4572,-0.4697,-0.4697,-0.4698,-0.4698,0,-0.3942,-0.395,-0.4064,-0.4076,-0.4087,-0.4172,-0.418,-0.423,-0.4287,-0.431,-0.4388,-0.4407,-0.4501,-0.4531,-0.4587,-0.4605,-0.4617,-0.4647,-0.4662,-0.464,-0.4636,-0.4655,-0.4661,-0.4695,-0.4696,-0.4696,-0.4697,0,-0.3822,-0.3898,-0.3926,-0.4019,-0.4043,-0.4046,-0.4126,-0.414,-0.4197,-0.4224,-0.4236,-0.4323,-0.4363,-0.4439,-0.4498,-0.4537,-0.4542,-0.4568,-0.4521,-0.453,-0.4502,-0.4503,-0.44,-0.439,-0.452,-0.4519,-0.4518,0,-0.3766,-0.3774,-0.3869,-0.389,-0.393,-0.3963,-0.3992,-0.4077,-0.4104,-0.4177,-0.4182,-0.4228,-0.4269,-0.4328,-0.4396,-0.4442,-0.447,-0.4431,-0.4477,-0.4455,-0.4469,-0.4468,-0.4469,-0.442,-0.4418,-0.4416,-0.4415,0,-0.366,-0.3698,-0.3738,-0.3791,-0.3824,-0.387,-0.3919,-0.3932,-0.4028,-0.4054,-0.4096,-0.4128,-0.419,-0.4234,-0.4291,-0.4333,-0.4389,-0.44,-0.4397,-0.4375,-0.4347,-0.4362,-0.4492,-0.4402,-0.4403,-0.4404,-0.4405,-0.4405,-0.3571,-0.3582,-0.365,-0.3692,-0.3739,-0.3784,-0.3802,-0.3861,-0.3899,-0.3957,-0.4004,-0.4042,-0.4105,-0.4187,-0.4225,-0.4256,-0.4283,-0.4278,-0.4277,-0.4275,-0.4266,-0.4342,-0.4266,-0.4267,-0.4267,-0.4267,-0.4268,0,-0.3468,-0.3517,-0.3555,-0.3623,-0.3655,-0.3708,-0.3765,-0.3789,-0.3822,-0.3876,-0.3916,-0.3964,-0.4007,-0.4079,-0.4128,-0.4139,-0.4166,-0.4149,-0.4149,-0.4157,-0.4239,-0.4236,-0.4126,-0.4126,-0.4126,-0.4126,-0.4126,-0.4126,-0.3419,-0.3441,-0.3487,-0.3533,-0.3581,-0.362,-0.3649,-0.369,-0.3734,-0.3785,-0.3822,-0.387,-0.3931,-0.3985,-0.4027,-0.4047,-0.4061,-0.4036,-0.4064,-0.4138,-0.4151,-0.4164,-0.4163,-0.4038,-0.4038,-0.398,-0.398,-0.3979]}]]